Paducah, KY

3:33 PM CDT on March 29, 2017 (GMT -0500)
Barkley Regional

Weather History for KPAH - July, 2012

Change the Weather History Date:

Sunday, July 29, 2012

  Actual Average Record
Temperature  
Mean Temperature 76 °F 79 °F  
Max Temperature 85 °F 89 °F 100 °F (1999)
Min Temperature 66 °F 68 °F 56 °F (1994)
Degree Days  
Heating Degree Days 0 0  
Month to date heating degree days 0 0  
Since 1 June heating degree days 7 4  
Since 1 July heating degree days 0 0  
Cooling Degree Days 11 14  
Month to date cooling degree days 574 406  
Year to date cooling degree days 1313 898  
Since 1 June cooling degree days 930 726  
Growing Degree Days 25 (Base 50)    
Moisture  
Dew Point 67 °F    
Average Humidity 71    
Maximum Humidity 93    
Minimum Humidity 48    
Precipitation  
Precipitation 0.21 in 0.13 in 4.43 in (2000)
Month to date precipitation 1.77 4.19  
Year to date precipitation 13.36 29.47  
Snow  
Snow 0.00 in 0.00 in - ()
Month to date snowfall 0.0 0.0  
Since 1 June snowfall 0.0 0.0  
Since 1 July snowfall 0.0 0.0  
Snow Depth 0.00 in    
Sea Level Pressure  
Sea Level Pressure 30.03 in    
Wind  
Wind Speed 2 mph (South)    
Max Wind Speed 8 mph    
Max Gust Speed 12 mph    
Visibility 9 miles    
Events Rain    
T = Trace of Precipitation, MM = Missing Value Source: NWS Daily Summary

Daily Weather History Graph

Daily Weather History Graph

Search for Another Location

Airport or City:

Trip Planner

Search our weather history database for the weather conditions in past years. The results will help you decide how hot, cold, wet, or windy it might be!

Date:

Astronomy

Jul. 29, 2012 Rise Set
Actual Time 5:58 AM CDT 8:04 PM CDT
Civil Twilight 5:29 AM CDT 8:33 PM CDT
Nautical Twilight 4:53 AM CDT 9:08 PM CDT
Astronomical Twilight 4:15 AM CDT 9:46 PM CDT
Moon 5:09 PM CDT 2:13 AM CDT
Length of Visible Light 15h 04m
Length of Day
14h 06m
Waxing Gibbous, 85% of the Moon is Illuminated
Jul 29
Waxing Gibbous
Aug 1
Full
Aug 9
Last Quarter
Aug 17
New
Aug 24
First Quarter

Hourly Weather History & Observations

Time (CDT) Temp. Heat Index Dew Point Humidity Pressure Visibility Wind Dir Wind Speed Gust Speed Precip Events Conditions
12:53 AM 70.0 °F - 64.9 °F 84% 30.03 in 10.0 mi Calm Calm - N/A   Clear
1:53 AM 70.0 °F - 64.0 °F 81% 30.03 in 10.0 mi Calm Calm - N/A   Clear
2:53 AM 68.0 °F - 64.0 °F 87% 30.01 in 10.0 mi Calm Calm - N/A   Clear
3:53 AM 66.9 °F - 64.0 °F 90% 30.00 in 10.0 mi Calm Calm - N/A   Clear
4:53 AM 68.0 °F - 64.9 °F 90% 30.02 in 10.0 mi Calm Calm - N/A   Clear
5:53 AM 66.9 °F - 64.0 °F 90% 30.04 in 10.0 mi Calm Calm - N/A   Clear
6:53 AM 71.1 °F - 66.0 °F 84% 30.06 in 10.0 mi Calm Calm - N/A   Clear
7:53 AM 75.9 °F - 66.9 °F 74% 30.06 in 10.0 mi Calm Calm - N/A   Clear
8:53 AM 78.1 °F - 64.9 °F 64% 30.08 in 10.0 mi Calm Calm - N/A   Clear
9:53 AM 82.0 °F 83.8 °F 64.9 °F 56% 30.09 in 10.0 mi Calm Calm - N/A   Partly Cloudy
10:53 AM 84.0 °F 84.9 °F 63.0 °F 49% 30.09 in 10.0 mi Calm Calm - N/A   Clear
11:53 AM 80.1 °F 82.7 °F 68.0 °F 67% 30.08 in 8.0 mi North 3.5 mph - 0.01 in Rain Light Rain
12:53 PM 75.9 °F - 72.0 °F 87% 30.09 in 4.0 mi WSW 3.5 mph - 0.03 in Rain Light Rain
1:53 PM 75.9 °F - 70.0 °F 82% 30.04 in 8.0 mi South 4.6 mph - 0.02 in Rain Light Rain
2:53 PM 73.0 °F - 68.0 °F 84% 30.04 in 4.0 mi Calm Calm - 0.07 in Rain Rain
3:53 PM 75.0 °F - 70.0 °F 84% 29.99 in 10.0 mi ESE 8.1 mph - 0.02 in   Clear
4:53 PM 78.1 °F - 68.0 °F 71% 29.99 in 10.0 mi South 5.8 mph - N/A   Clear
5:53 PM 80.1 °F 82.7 °F 68.0 °F 67% 29.98 in 10.0 mi WSW 5.8 mph - N/A   Clear
6:53 PM 80.1 °F 82.7 °F 68.0 °F 67% 29.97 in 10.0 mi WSW 5.8 mph - N/A   Clear
7:53 PM 77.0 °F - 69.1 °F 76% 29.96 in 10.0 mi Calm Calm - N/A   Partly Cloudy
8:53 PM 73.0 °F - 69.1 °F 87% 29.97 in 10.0 mi ESE 3.5 mph - N/A   Partly Cloudy
9:53 PM 73.0 °F - 69.1 °F 87% 29.97 in 10.0 mi SE 3.5 mph - N/A   Clear
11:53 PM 73.0 °F - 68.0 °F 84% 29.97 in 10.0 mi Variable 3.5 mph - N/A   Clear